| time (UTC) | temp F | wind direction | speed MPH | gust MPH | rain 1hr in | rain 24hr in | rain mn in | humidity % | barometer mb |
| 20260505175850 | 61 | 146 | 6.0 | 7.0 | 0.17 | 0.82 | 0.82 | 99 | 1015.9 |
| 20260505175347 | 61 | 128 | 4.0 | 6.0 | 0.19 | 0.80 | 0.80 | 99 | 1016.3 |
| 20260505174843 | 61 | 131 | 2.0 | 4.0 | 0.50 | 0.79 | 0.79 | 99 | 1016.3 |
| 20260505174341 | 61 | 137 | 4.0 | 4.0 | 0.40 | 0.76 | 0.76 | 99 | 1016.0 |
| 20260505173836 | 61 | 130 | 4.0 | 5.0 | 0.09 | 0.69 | 0.69 | 99 | 1016.1 |
| 20260505173333 | 60 | 132 | 2.0 | 7.0 | 0.09 | 0.69 | 0.69 | 99 | 1016.2 |
| 20260505172830 | 60 | 128 | 6.0 | 8.0 | 0.07 | 0.68 | 0.68 | 99 | 1016.1 |
| 20260505172328 | 60 | 118 | 5.0 | 9.0 | 0.07 | 0.67 | 0.67 | 99 | 1015.9 |
| 20260505171827 | 60 | 155 | 2.0 | 6.0 | 0.07 | 0.67 | 0.67 | 99 | 1015.6 |
| 20260505171325 | 60 | 151 | 3.0 | 7.0 | 0.07 | 0.66 | 0.66 | 99 | 1015.7 |
| 20260505170821 | 60 | 163 | 2.0 | 7.0 | 0.09 | 0.65 | 0.65 | 99 | 1015.7 |
| 20260505170318 | 60 | 148 | 3.0 | 8.0 | 0.21 | 0.65 | 0.65 | 99 | 1015.6 |
| 20260505165813 | 60 | 134 | 3.0 | 6.0 | 0.28 | 0.63 | 0.63 | 99 | 1015.7 |
| 20260505165309 | 60 | 116 | 8.0 | 12.0 | 0.19 | 0.61 | 0.61 | 99 | 1015.6 |
| 20260505164805 | 60 | 138 | 5.0 | 10.0 | 0.09 | 0.58 | 0.58 | 99 | 1015.7 |
| 20260505164303 | 59 | 147 | 3.0 | 9.0 | 0.12 | 0.57 | 0.57 | 99 | 1015.7 |
| 20260505163801 | 60 | 146 | 5.0 | 5.0 | 0.17 | 0.57 | 0.57 | 99 | 1015.5 |
| 20260505163259 | 60 | 131 | 6.0 | 6.0 | 0.26 | 0.56 | 0.56 | 99 | 1015.7 |
| 20260505162756 | 60 | 140 | 3.0 | 11.0 | 0.28 | 0.54 | 0.54 | 99 | 1015.6 |
| 20260505162253 | 60 | 152 | 2.0 | 5.0 | 0.26 | 0.51 | 0.51 | 99 | 1015.7 |
| 20260505161750 | 60 | 127 | 2.0 | 6.0 | 0.21 | 0.48 | 0.48 | 99 | 1015.7 |
| 20260505161247 | 60 | 144 | 4.0 | 7.0 | 0.24 | 0.46 | 0.46 | 99 | 1015.8 |
| 20260505160744 | 60 | 171 | 2.0 | 5.0 | 0.19 | 0.45 | 0.45 | 99 | 1015.9 |
| 20260505160242 | 60 | 134 | 3.0 | 6.0 | 0.07 | 0.42 | 0.42 | 99 | 1015.8 |
| 20260505153221 | 59 | 193 | 2.0 | 7.0 | 0.17 | 0.37 | 0.37 | 99 | 1015.5 |
| 20260505152718 | 59 | 186 | 3.0 | 5.0 | 0.24 | 0.35 | 0.35 | 99 | 1015.6 |
| 20260505152214 | 59 | 151 | 6.0 | 7.0 | 0.17 | 0.34 | 0.34 | 99 | 1015.8 |
| 20260505151709 | 59 | 178 | 6.0 | 7.0 | 0.05 | 0.32 | 0.32 | 99 | 1016.0 |
| 20260505151207 | 59 | 174 | 4.0 | 7.0 | 0.00 | 0.31 | 0.31 | 99 | 1016.0 |
| 20260505150703 | 59 | 161 | 6.0 | 9.0 | 0.00 | 0.31 | 0.31 | 99 | 1015.8 |
| 20260505150200 | 59 | 159 | 4.0 | 11.0 | 0.05 | 0.31 | 0.31 | 99 | 1015.6 |
| 20260505140628 | 59 | 159 | 3.0 | 7.0 | 0.12 | 0.17 | 0.17 | 99 | 1016.0 |
| 20260505140125 | 59 | 175 | 9.0 | 10.0 | 0.05 | 0.16 | 0.16 | 99 | 1016.1 |
| 20260505125041 | 60 | 185 | 4.0 | 9.0 | 0.00 | 0.10 | 0.10 | 95 | 1016.8 |
| 20260505124538 | 60 | 203 | 4.0 | 8.0 | 0.00 | 0.10 | 0.10 | 95 | 1016.9 |
| 20260505124034 | 61 | 205 | 2.0 | 5.0 | 0.00 | 0.10 | 0.10 | 96 | 1016.7 |
| 20260505123531 | 61 | 213 | 4.0 | 8.0 | 0.00 | 0.10 | 0.10 | 96 | 1016.5 |
| 20260505123027 | 61 | 183 | 2.0 | 8.0 | 0.00 | 0.10 | 0.10 | 96 | 1016.4 |
| 20260505122524 | 61 | 183 | 3.0 | 6.0 | 0.00 | 0.10 | 0.10 | 96 | 1016.4 |
| 20260505122021 | 60 | 231 | 5.0 | 7.0 | 0.00 | 0.10 | 0.10 | 97 | 1016.5 |
| 20260505121518 | 60 | 223 | 5.0 | 7.0 | 0.00 | 0.10 | 0.10 | 97 | 1016.5 |
| 20260505121014 | 60 | 233 | 4.0 | 9.0 | 0.00 | 0.10 | 0.10 | 97 | 1016.7 |
| 20260505120511 | 60 | 207 | 5.0 | 8.0 | 0.00 | 0.10 | 0.10 | 98 | 1016.6 |
| 20260505120006 | 59 | 201 | 3.0 | 9.0 | 0.00 | 0.10 | 0.10 | 98 | 1016.8 |
| 20260505115501 | 59 | 224 | 3.0 | 9.0 | 0.00 | 0.10 | 0.10 | 98 | 1016.9 |
| 20260505114959 | 59 | 228 | 5.0 | 11.0 | 0.00 | 0.10 | 0.10 | 98 | 1017.0 |
| 20260505114455 | 59 | 236 | 7.0 | 13.0 | 0.00 | 0.10 | 0.10 | 97 | 1017.0 |
| 20260505113952 | 59 | 217 | 7.0 | 12.0 | 0.00 | 0.10 | 0.10 | 97 | 1016.9 |
| 20260505113449 | 59 | 229 | 6.0 | 14.0 | 0.00 | 0.10 | 0.10 | 97 | 1017.1 |
| 20260505112944 | 59 | 246 | 6.0 | 9.0 | 0.00 | 0.10 | 0.10 | 98 | 1017.1 |
| 20260505112442 | 59 | 204 | 6.0 | 11.0 | 0.00 | 0.10 | 0.10 | 97 | 1017.4 |
| 20260505111938 | 59 | 197 | 6.0 | 9.0 | 0.00 | 0.10 | 0.10 | 97 | 1017.6 |
| 20260505111432 | 59 | 210 | 10.0 | 11.0 | 0.00 | 0.10 | 0.10 | 97 | 1017.7 |
| 20260505110929 | 59 | 220 | 5.0 | 13.0 | 0.00 | 0.10 | 0.10 | 97 | 1017.5 |
| 20260505110426 | 59 | 188 | 4.0 | 10.0 | 0.00 | 0.10 | 0.10 | 97 | 1017.5 |
| 20260505101857 | 58 | 219 | 4.0 | 11.0 | 0.07 | 0.10 | 0.10 | 97 | 1018.1 |
| 20260505101352 | 58 | 206 | 5.0 | 11.0 | 0.14 | 0.10 | 0.10 | 96 | 1018.3 |
| 20260505100848 | 58 | 194 | 6.0 | 7.0 | 0.17 | 0.09 | 0.09 | 96 | 1018.3 |
| 20260505100344 | 58 | 201 | 3.0 | 8.0 | 0.14 | 0.07 | 0.07 | 95 | 1018.5 |
| 20260505095840 | 58 | 228 | 5.0 | 8.0 | 0.02 | 0.06 | 0.06 | 94 | 1018.7 |
| 20260505095338 | 58 | 199 | 2.0 | 10.0 | 0.00 | 0.05 | 0.05 | 94 | 1018.8 |
| 20260505094834 | 58 | 208 | 3.0 | 10.0 | 0.00 | 0.05 | 0.05 | 95 | 1018.7 |
| 20260505094331 | 58 | 232 | 4.0 | 10.0 | 0.00 | 0.05 | 0.05 | 95 | 1018.4 |
| 20260505093826 | 58 | 186 | 11.0 | 12.0 | 0.00 | 0.05 | 0.05 | 95 | 1018.2 |
| 20260505093324 | 58 | 208 | 5.0 | 13.0 | 0.00 | 0.05 | 0.05 | 95 | 1018.4 |
| 20260505092821 | 58 | 235 | 7.0 | 12.0 | 0.00 | 0.05 | 0.05 | 95 | 1018.4 |
| 20260505092319 | 58 | 210 | 9.0 | 11.0 | 0.00 | 0.05 | 0.05 | 95 | 1018.5 |
| 20260505091816 | 58 | 219 | 9.0 | 15.0 | 0.02 | 0.05 | 0.05 | 95 | 1018.6 |
| 20260505091314 | 58 | 212 | 5.0 | 14.0 | 0.07 | 0.05 | 0.05 | 95 | 1018.4 |
| 20260505090812 | 58 | 200 | 4.0 | 10.0 | 0.12 | 0.05 | 0.05 | 94 | 1018.4 |
| 20260505090310 | 58 | 204 | 7.0 | 10.0 | 0.09 | 0.04 | 0.04 | 93 | 1018.8 |
| 20260505085807 | 59 | 198 | 0.0 | 10.0 | 0.02 | 0.03 | 0.03 | 92 | 1018.7 |
| 20260505085305 | 59 | 226 | 9.0 | 14.0 | 0.00 | 0.02 | 0.02 | 91 | 1018.7 |
| 20260505084802 | 59 | 201 | 2.0 | 9.0 | 0.00 | 0.02 | 0.02 | 91 | 1018.6 |
| 20260505084301 | 59 | 212 | 3.0 | 9.0 | 0.00 | 0.02 | 0.02 | 91 | 1018.6 |
| 20260505083757 | 59 | 225 | 5.0 | 9.0 | 0.00 | 0.02 | 0.02 | 91 | 1018.3 |
| 20260505083254 | 59 | 230 | 3.0 | 7.0 | 0.00 | 0.02 | 0.02 | 91 | 1018.4 |
| 20260505082750 | 59 | 246 | 4.0 | 15.0 | 0.00 | 0.02 | 0.02 | 90 | 1018.5 |
| 20260505082248 | 59 | 214 | 5.0 | 14.0 | 0.00 | 0.02 | 0.02 | 90 | 1018.5 |
| 20260505081743 | 59 | 219 | 6.0 | 17.0 | 0.00 | 0.02 | 0.02 | 91 | 1018.5 |
| 20260505081241 | 58 | 217 | 9.0 | 16.0 | 0.00 | 0.02 | 0.02 | 91 | 1018.7 |
| 20260505080738 | 58 | 203 | 8.0 | 12.0 | 0.00 | 0.02 | 0.02 | 91 | 1018.7 |
| 20260505080233 | 58 | 222 | 6.0 | 11.0 | 0.00 | 0.02 | 0.02 | 91 | 1018.8 |
| 20260505075729 | 58 | 243 | 3.0 | 8.0 | 0.00 | 0.02 | 0.02 | 92 | 1018.9 |
| 20260505075227 | 58 | 250 | 5.0 | 13.0 | 0.00 | 0.02 | 0.02 | 91 | 1018.8 |
| 20260505074724 | 58 | 245 | 6.0 | 13.0 | 0.00 | 0.02 | 0.02 | 91 | 1018.6 |
| 20260505074221 | 58 | 222 | 6.0 | 12.0 | 0.00 | 0.02 | 0.02 | 90 | 1018.6 |
| 20260505073718 | 58 | 233 | 9.0 | 16.0 | 0.00 | 0.02 | 0.02 | 90 | 1018.7 |
| 20260505073216 | 58 | 227 | 8.0 | 14.0 | 0.00 | 0.02 | 0.02 | 92 | 1018.7 |
| 20260505072712 | 57 | 205 | 7.0 | 14.0 | 0.00 | 0.02 | 0.02 | 93 | 1018.6 |
| 20260505072208 | 57 | 213 | 4.0 | 16.0 | 0.00 | 0.02 | 0.02 | 94 | 1018.9 |
| 20260505071704 | 57 | 209 | 5.0 | 12.0 | 0.00 | 0.02 | 0.02 | 94 | 1018.6 |
| 20260505071201 | 57 | 217 | 9.0 | 12.0 | 0.00 | 0.02 | 0.02 | 94 | 1018.6 |
| 20260505070659 | 56 | 183 | 6.0 | 13.0 | 0.02 | 0.02 | 0.02 | 95 | 1018.6 |
| 20260505070155 | 57 | 231 | 3.0 | 16.0 | 0.02 | 0.02 | 0.02 | 95 | 1018.6 |
| 20260505065651 | 57 | 238 | 3.0 | 10.0 | 0.00 | 0.02 | 0.02 | 95 | 1018.4 |
| 20260505065148 | 56 | 163 | 3.0 | 19.0 | 0.05 | 0.02 | 0.02 | 94 | 1018.4 |
| 20260505064645 | 56 | 213 | 7.0 | 11.0 | 0.09 | 0.02 | 0.02 | 93 | 1018.6 |
| 20260505064143 | 57 | 270 | 5.0 | 13.0 | 0.05 | 0.01 | 0.01 | 92 | 1018.5 |
| 20260505063640 | 57 | 259 | 4.0 | 14.0 | 0.02 | 0.00 | 0.00 | 91 | 1018.3 |
| 20260505063136 | 57 | 251 | 8.0 | 13.0 | 0.02 | 0.00 | 0.00 | 90 | 1018.4 |
| 20260505062633 | 58 | 216 | 3.0 | 10.0 | 0.00 | 0.00 | 0.00 | 88 | 1018.4 |
| 20260505062130 | 59 | 217 | 3.0 | 15.0 | 0.00 | 0.00 | 0.00 | 85 | 1018.4 |
| 20260505061627 | 59 | 237 | 4.0 | 16.0 | 0.00 | 0.00 | 0.00 | 83 | 1018.2 |
| 20260505061125 | 59 | 231 | 3.0 | 9.0 | 0.00 | 0.00 | 0.00 | 83 | 1018.1 |
| 20260505060622 | 59 | 191 | 3.0 | 13.0 | 0.00 | 0.00 | 0.00 | 83 | 1017.9 |
| 20260505060119 | 59 | 196 | 4.0 | 15.0 | 0.00 | 0.00 | 0.00 | 83 | 1017.9 |
| 20260505055614 | 59 | 224 | 7.0 | 12.0 | 0.00 | 0.00 | 0.00 | 83 | 1017.7 |
| 20260505055111 | 59 | 201 | 7.0 | 15.0 | 0.00 | 0.00 | 0.00 | 83 | 1017.6 |
| 20260505054608 | 59 | 235 | 8.0 | 12.0 | 0.00 | 0.00 | 0.00 | 83 | 1017.5 |
| 20260505054107 | 59 | 224 | 10.0 | 16.0 | 0.00 | 0.00 | 0.00 | 84 | 1017.5 |
| 20260505053603 | 59 | 205 | 6.0 | 13.0 | 0.00 | 0.00 | 0.00 | 84 | 1017.6 |
| 20260505053100 | 59 | 207 | 2.0 | 15.0 | 0.00 | 0.00 | 0.00 | 84 | 1017.3 |
| 20260505052557 | 59 | 223 | 10.0 | 14.0 | 0.00 | 0.00 | 0.00 | 84 | 1017.5 |
| 20260505052054 | 59 | 240 | 6.0 | 15.0 | 0.00 | 0.00 | 0.00 | 83 | 1017.2 |
| 20260505051551 | 59 | 196 | 6.0 | 16.0 | 0.00 | 0.00 | 0.00 | 83 | 1017.2 |
| 20260505051049 | 59 | 213 | 6.0 | 20.0 | 0.00 | 0.00 | 0.00 | 83 | 1017.4 |
| 20260505050547 | 59 | 248 | 8.0 | 14.0 | 0.00 | 0.00 | 0.00 | 83 | 1017.2 |
| 20260505041515 | 58 | 231 | 8.0 | 15.0 | 0.00 | 0.00 | 0.00 | 81 | 1017.0 |
| 20260505041012 | 58 | 239 | 7.0 | 17.0 | 0.00 | 0.00 | 0.00 | 81 | 1017.1 |
| 20260505040509 | 58 | 227 | 12.0 | 12.0 | 0.00 | 0.00 | 0.00 | 81 | 1016.9 |
| 20260505040007 | 58 | 209 | 5.0 | 14.0 | 0.00 | 0.00 | 0.00 | 80 | 1017.0 |
| 20260505035502 | 58 | 228 | 8.0 | 12.0 | 0.00 | 0.00 | 0.00 | 79 | 1016.9 |
| 20260505034959 | 58 | 205 | 6.0 | 14.0 | 0.00 | 0.00 | 0.00 | 79 | 1016.7 |
| 20260505034455 | 58 | 233 | 5.0 | 11.0 | 0.00 | 0.00 | 0.00 | 80 | 1017.3 |
| 20260505033953 | 58 | 234 | 11.0 | 15.0 | 0.00 | 0.00 | 0.00 | 80 | 1016.8 |
| 20260505033449 | 58 | 218 | 7.0 | 12.0 | 0.00 | 0.00 | 0.00 | 80 | 1017.0 |
| 20260505032948 | 58 | 225 | 6.0 | 14.0 | 0.00 | 0.00 | 0.00 | 81 | 1017.1 |
| 20260505032445 | 58 | 220 | 5.0 | 11.0 | 0.00 | 0.00 | 0.00 | 82 | 1017.0 |
| 20260505031941 | 58 | 231 | 6.0 | 15.0 | 0.00 | 0.00 | 0.00 | 83 | 1016.9 |
| 20260505031438 | 58 | 222 | 8.0 | 15.0 | 0.00 | 0.00 | 0.00 | 83 | 1016.9 |
| 20260505030935 | 58 | 208 | 10.0 | 13.0 | 0.00 | 0.00 | 0.00 | 84 | 1016.9 |
| 20260505030431 | 58 | 225 | 5.0 | 12.0 | 0.00 | 0.00 | 0.00 | 84 | 1016.9 |
| 20260505025926 | 58 | 240 | 6.0 | 15.0 | 0.00 | 0.00 | 0.00 | 85 | 1016.7 |
| 20260505025424 | 58 | 216 | 11.0 | 17.0 | 0.00 | 0.00 | 0.00 | 85 | 1016.7 |
| 20260505024923 | 58 | 205 | 9.0 | 21.0 | 0.00 | 0.00 | 0.00 | 84 | 1016.9 |
| 20260505024420 | 58 | 197 | 6.0 | 15.0 | 0.00 | 0.00 | 0.00 | 85 | 1016.6 |
| 20260505023917 | 58 | 218 | 16.0 | 19.0 | 0.00 | 0.00 | 0.00 | 84 | 1016.7 |
| 20260505023414 | 59 | 210 | 10.0 | 20.0 | 0.00 | 0.00 | 0.00 | 83 | 1016.7 |
| 20260505022911 | 59 | 227 | 9.0 | 15.0 | 0.00 | 0.00 | 0.00 | 82 | 1016.4 |
| 20260505022408 | 59 | 285 | 12.0 | 16.0 | 0.00 | 0.00 | 0.00 | 83 | 1016.5 |
| 20260505021905 | 59 | 225 | 9.0 | 12.0 | 0.00 | 0.00 | 0.00 | 84 | 1016.6 |
| 20260505021402 | 59 | 238 | 8.0 | 15.0 | 0.00 | 0.00 | 0.00 | 83 | 1016.4 |
| 20260505020858 | 60 | 210 | 9.0 | 13.0 | 0.00 | 0.00 | 0.00 | 83 | 1016.4 |
| 20260505020353 | 60 | 225 | 6.0 | 23.0 | 0.00 | 0.00 | 0.00 | 83 | 1016.5 |
| 20260505015850 | 60 | 196 | 9.0 | 17.0 | 0.00 | 0.00 | 0.00 | 83 | 1016.2 |
| 20260505015347 | 60 | 205 | 13.0 | 21.0 | 0.00 | 0.00 | 0.00 | 83 | 1016.6 |
| 20260505014845 | 60 | 217 | 11.0 | 16.0 | 0.00 | 0.00 | 0.00 | 82 | 1016.4 |
| 20260505014341 | 60 | 219 | 15.0 | 20.0 | 0.00 | 0.00 | 0.00 | 82 | 1016.6 |
| 20260505013838 | 60 | 229 | 13.0 | 17.0 | 0.00 | 0.00 | 0.00 | 82 | 1016.3 |
| 20260505013335 | 60 | 220 | 4.0 | 15.0 | 0.00 | 0.00 | 0.00 | 83 | 1016.5 |
| 20260505012834 | 60 | 219 | 9.0 | 16.0 | 0.00 | 0.00 | 0.00 | 83 | 1016.3 |
| 20260505012331 | 60 | 197 | 9.0 | 23.0 | 0.00 | 0.00 | 0.00 | 83 | 1016.7 |
| 20260505011827 | 60 | 205 | 7.0 | 12.0 | 0.00 | 0.00 | 0.00 | 83 | 1016.4 |
| 20260505011324 | 60 | 148 | 3.0 | 12.0 | 0.00 | 0.00 | 0.00 | 83 | 1016.7 |
| 20260505010820 | 60 | 204 | 7.0 | 10.0 | 0.00 | 0.00 | 0.00 | 83 | 1016.6 |
| 20260505010316 | 60 | 203 | 7.0 | 16.0 | 0.00 | 0.00 | 0.00 | 84 | 1016.6 |
| 20260505005812 | 60 | 214 | 5.0 | 15.0 | 0.00 | 0.00 | 0.00 | 84 | 1016.8 |
| 20260505005310 | 60 | 244 | 11.0 | 13.0 | 0.00 | 0.00 | 0.00 | 84 | 1017.1 |
| 20260505004807 | 60 | 218 | 5.0 | 15.0 | 0.00 | 0.00 | 0.00 | 84 | 1016.8 |
| 20260505004303 | 60 | 215 | 11.0 | 13.0 | 0.00 | 0.00 | 0.00 | 84 | 1016.9 |
| 20260505003801 | 60 | 230 | 10.0 | 17.0 | 0.00 | 0.00 | 0.00 | 84 | 1016.8 |
| 20260505003258 | 60 | 219 | 10.0 | 19.0 | 0.00 | 0.00 | 0.00 | 85 | 1017.1 |
| 20260505002754 | 60 | 224 | 11.0 | 16.0 | 0.00 | 0.00 | 0.00 | 85 | 1017.1 |
| 20260505002251 | 60 | 205 | 6.0 | 13.0 | 0.00 | 0.00 | 0.00 | 84 | 1017.1 |
| 20260505001749 | 61 | 241 | 2.0 | 14.0 | 0.00 | 0.00 | 0.00 | 84 | 1017.2 |
| 20260505001246 | 61 | 238 | 10.0 | 12.0 | 0.00 | 0.00 | 0.00 | 84 | 1017.2 |
| 20260505000743 | 61 | 203 | 10.0 | 13.0 | 0.00 | 0.00 | 0.00 | 84 | 1017.3 |
| 20260505000241 | 61 | 219 | 2.0 | 13.0 | 0.00 | 0.00 | 0.00 | 84 | 1017.1 |
| 20260504235737 | 61 | 229 | 6.0 | 14.0 | 0.00 | 0.00 | 0.00 | 84 | 1017.1 |
| 20260504235233 | 61 | 205 | 8.0 | 17.0 | 0.00 | 0.00 | 0.00 | 84 | 1017.2 |
| 20260504234731 | 61 | 239 | 8.0 | 14.0 | 0.00 | 0.00 | 0.00 | 85 | 1017.1 |
| 20260504234228 | 61 | 208 | 5.0 | 15.0 | 0.00 | 0.00 | 0.00 | 85 | 1017.2 |
| 20260504233724 | 61 | 232 | 8.0 | 14.0 | 0.00 | 0.00 | 0.00 | 85 | 1017.2 |
| 20260504233220 | 61 | 219 | 5.0 | 16.0 | 0.00 | 0.00 | 0.00 | 84 | 1017.0 |
| 20260504232717 | 61 | 199 | 12.0 | 13.0 | 0.00 | 0.00 | 0.00 | 84 | 1016.9 |
| 20260504232214 | 61 | 238 | 7.0 | 13.0 | 0.00 | 0.00 | 0.00 | 84 | 1017.1 |
| 20260504231711 | 61 | 222 | 5.0 | 14.0 | 0.00 | 0.00 | 0.00 | 84 | 1017.1 |
| 20260504231207 | 61 | 193 | 4.0 | 17.0 | 0.00 | 0.00 | 0.00 | 84 | 1016.9 |
| 20260504230703 | 61 | 185 | 4.0 | 13.0 | 0.00 | 0.00 | 0.00 | 84 | 1016.9 |
| 20260504230202 | 61 | 198 | 12.0 | 17.0 | 0.00 | 0.00 | 0.00 | 83 | 1017.0 |
| 20260504225701 | 61 | 214 | 9.0 | 18.0 | 0.00 | 0.00 | 0.00 | 83 | 1017.0 |
| 20260504225156 | 61 | 204 | 11.0 | 17.0 | 0.00 | 0.00 | 0.00 | 83 | 1016.9 |
| 20260504224654 | 61 | 184 | 2.0 | 15.0 | 0.00 | 0.00 | 0.00 | 83 | 1016.9 |
| 20260504224150 | 61 | 211 | 8.0 | 16.0 | 0.00 | 0.00 | 0.00 | 83 | 1017.0 |
| 20260504223647 | 61 | 219 | 6.0 | 15.0 | 0.00 | 0.00 | 0.00 | 83 | 1016.8 |
| 20260504223143 | 61 | 222 | 8.0 | 12.0 | 0.00 | 0.00 | 0.00 | 83 | 1016.8 |
| 20260504222640 | 61 | 195 | 5.0 | 13.0 | 0.00 | 0.00 | 0.00 | 83 | 1016.7 |
| 20260504222137 | 61 | 213 | 7.0 | 19.0 | 0.00 | 0.00 | 0.00 | 83 | 1016.6 |
| 20260504221634 | 61 | 205 | 6.0 | 18.0 | 0.00 | 0.00 | 0.00 | 83 | 1016.9 |
| 20260504221131 | 61 | 191 | 4.0 | 15.0 | 0.00 | 0.00 | 0.00 | 83 | 1016.7 |
| 20260504220627 | 62 | 191 | 5.0 | 15.0 | 0.00 | 0.00 | 0.00 | 83 | 1016.8 |
| 20260504220126 | 62 | 211 | 4.0 | 16.0 | 0.00 | 0.00 | 0.00 | 83 | 1016.9 |
| 20260504215621 | 62 | 218 | 5.0 | 17.0 | 0.00 | 0.00 | 0.00 | 84 | 1017.0 |
| 20260504215119 | 62 | 185 | 10.0 | 15.0 | 0.00 | 0.00 | 0.00 | 84 | 1017.0 |
| 20260504214614 | 62 | 196 | 10.0 | 13.0 | 0.00 | 0.00 | 0.00 | 84 | 1016.8 |
| 20260504214111 | 62 | 231 | 9.0 | 13.0 | 0.00 | 0.00 | 0.00 | 85 | 1016.9 |
| 20260504213608 | 62 | 224 | 3.0 | 17.0 | 0.00 | 0.00 | 0.00 | 84 | 1017.0 |
| 20260504213105 | 62 | 245 | 8.0 | 15.0 | 0.00 | 0.00 | 0.00 | 85 | 1017.0 |
| 20260504212600 | 62 | 214 | 9.0 | 15.0 | 0.00 | 0.00 | 0.00 | 85 | 1017.0 |
| 20260504212058 | 62 | 202 | 11.0 | 15.0 | 0.00 | 0.00 | 0.00 | 85 | 1017.1 |
| 20260504211554 | 62 | 213 | 9.0 | 19.0 | 0.00 | 0.00 | 0.00 | 85 | 1016.9 |
| 20260504211051 | 62 | 204 | 9.0 | 11.0 | 0.00 | 0.00 | 0.00 | 86 | 1017.1 |
| 20260504210549 | 62 | 201 | 8.0 | 18.0 | 0.00 | 0.00 | 0.00 | 86 | 1017.3 |
| 20260504210045 | 62 | 214 | 9.0 | 13.0 | 0.00 | 0.00 | 0.00 | 87 | 1017.2 |
| 20260504205543 | 62 | 187 | 11.0 | 16.0 | 0.00 | 0.00 | 0.00 | 87 | 1017.5 |
| 20260504205041 | 62 | 194 | 6.0 | 11.0 | 0.00 | 0.00 | 0.00 | 88 | 1017.5 |
| 20260504204538 | 62 | 208 | 7.0 | 13.0 | 0.00 | 0.00 | 0.00 | 88 | 1017.8 |
| 20260504204038 | 62 | 225 | 8.0 | 14.0 | 0.00 | 0.00 | 0.00 | 89 | 1017.5 |
| 20260504203535 | 62 | 235 | 11.0 | 14.0 | 0.00 | 0.00 | 0.00 | 89 | 1017.6 |
| 20260504203032 | 62 | 217 | 8.0 | 11.0 | 0.00 | 0.00 | 0.00 | 89 | 1017.6 |
| 20260504202528 | 62 | 218 | 5.0 | 12.0 | 0.00 | 0.00 | 0.00 | 89 | 1017.5 |
| 20260504202025 | 62 | 228 | 10.0 | 17.0 | 0.00 | 0.00 | 0.00 | 90 | 1017.6 |
| 20260504201522 | 62 | 179 | 5.0 | 20.0 | 0.00 | 0.00 | 0.00 | 90 | 1017.5 |
| 20260504201020 | 62 | 208 | 7.0 | 15.0 | 0.00 | 0.00 | 0.00 | 90 | 1017.5 |
| 20260504200516 | 62 | 230 | 7.0 | 17.0 | 0.00 | 0.00 | 0.00 | 91 | 1017.7 |
| 20260504200013 | 62 | 193 | 7.0 | 14.0 | 0.00 | 0.00 | 0.00 | 91 | 1017.8 |
| 20260504195509 | 62 | 241 | 6.0 | 14.0 | 0.00 | 0.00 | 0.00 | 91 | 1017.7 |
| 20260504195006 | 62 | 219 | 11.0 | 16.0 | 0.00 | 0.00 | 0.00 | 91 | 1017.8 |
| 20260504194502 | 62 | 207 | 9.0 | 13.0 | 0.00 | 0.00 | 0.00 | 91 | 1017.7 |
| 20260504193957 | 62 | 259 | 7.0 | 16.0 | 0.00 | 0.00 | 0.00 | 91 | 1017.5 |
| 20260504193454 | 62 | 226 | 5.0 | 17.0 | 0.00 | 0.00 | 0.00 | 91 | 1017.6 |
| 20260504192953 | 62 | 187 | 4.0 | 13.0 | 0.00 | 0.00 | 0.00 | 91 | 1017.4 |
| 20260504192450 | 62 | 189 | 8.0 | 14.0 | 0.00 | 0.00 | 0.00 | 91 | 1017.3 |
| 20260504191949 | 62 | 180 | 8.0 | 17.0 | 0.00 | 0.00 | 0.00 | 91 | 1017.6 |
| 20260504191446 | 62 | 222 | 7.0 | 18.0 | 0.00 | 0.00 | 0.00 | 91 | 1017.3 |
| 20260504190941 | 62 | 225 | 7.0 | 13.0 | 0.00 | 0.00 | 0.00 | 91 | 1017.4 |
| 20260504190438 | 62 | 213 | 11.0 | 13.0 | 0.00 | 0.00 | 0.00 | 91 | 1017.2 |
| 20260504185935 | 63 | 185 | 9.0 | 15.0 | 0.00 | 0.00 | 0.00 | 91 | 1017.4 |
| 20260504185432 | 63 | 214 | 5.0 | 15.0 | 0.00 | 0.00 | 0.00 | 91 | 1017.2 |
| 20260504184928 | 63 | 207 | 4.0 | 15.0 | 0.00 | 0.00 | 0.00 | 91 | 1017.3 |
| 20260504184423 | 63 | 237 | 2.0 | 14.0 | 0.00 | 0.00 | 0.00 | 92 | 1017.2 |
| 20260504183920 | 63 | 193 | 9.0 | 12.0 | 0.00 | 0.00 | 0.00 | 92 | 1017.2 |
| 20260504183417 | 63 | 203 | 7.0 | 11.0 | 0.00 | 0.00 | 0.00 | 93 | 1017.4 |
| 20260504182915 | 63 | 192 | 4.0 | 21.0 | 0.00 | 0.00 | 0.00 | 93 | 1017.2 |
| 20260504182412 | 63 | 205 | 3.0 | 13.0 | 0.00 | 0.00 | 0.00 | 93 | 1017.1 |
| 20260504181909 | 63 | 217 | 6.0 | 13.0 | 0.00 | 0.00 | 0.00 | 93 | 1017.3 |
| 20260504181406 | 63 | 232 | 8.0 | 18.0 | 0.00 | 0.00 | 0.00 | 93 | 1017.2 |
| 20260504180904 | 63 | 229 | 7.0 | 11.0 | 0.00 | 0.00 | 0.00 | 93 | 1017.0 |
| 20260504180403 | 63 | 204 | 5.0 | 14.0 | 0.00 | 0.00 | 0.00 | 94 | 1017.2 |